User: anonymous   Login
Location: Unspecified
(0.0000°N, 0.0000°E)
Time: 04:18:49
(UTC+00:00)
Language:

GALILEO-FM2 - Orbit

View from above orbital plane
View from above orbital plane
View from above satellite
View from above satellite

Ground track
Ground track

The orbit data is extracted from the following two-line orbital elements,

1 37847U 11060B   19053.46627838 -.00000046  00000-0  00000+0 0  9999
2 37847  56.2987  54.5586 0006663 305.0521  55.4624  1.70475584 45701
Epoch (UTC): 22 February 2019 11:11:26
Eccentricity: 0.0006663
inclination: 56.2987°
perigee height: 23202 km
apogee height: 23241 km
right ascension of ascending node: 54.5586°
argument of perigee: 305.0521°
revolutions per day: 1.70475584
mean anomaly at epoch: 55.4624°
orbit number at epoch: 4570

The dashed part of the orbit path shows where the satellite is in the earth's shadow,  

DLR